Regional Weather Roundup
Issued by NWS

Home | Current Version | Previous Version | Graphics & Text | Print | Product List | Glossary On
Versions: 1 2 3 4 5 6 7 8 9 10 11 12 13 14 15 16 17 18 19 20 21 22 23 24 25 26 27 28 29 30 31 32 33 34 35 36 37 38 39 40 41 42 43 44 45 46 47 48 49 50
000
ASUS43 KOAX 211402
RWRNE

WEATHER ROUNDUP FOR NEBRASKA
NATIONAL WEATHER SERVICE OMAHA NE
900 AM CDT THU AUG 21 2014

NOTES: SATELLITE DATA IS BEING USED TO AUGMENT CLOUD COVER ABOVE
       12000 FEET.
       "FAIR" INDICATES FEW OR NO CLOUDS BELOW 12,000 FEET WITH NO
       SIGNIFICANT WEATHER AND/OR OBSTRUCTIONS TO VISIBILITY.

  * THESE STATIONS DO NOT REPORT WEATHER SUCH AS RAIN...SNOW OR FOG.

NEZ001>004-019>022-054>056-211500-
NEBRASKA PANHANDLE

CITY           SKY/WX    TMP DP  RH WIND       PRES   REMARKS
SCOTTSBLUFF    SUNNY     64  52  64 NW10      30.00R
ALLIANCE       SUNNY     68  56  65 N12       29.98R
CHADRON        SUNNY     65  55  70 SW5       29.97R
KIMBALL        SUNNY     65  49  55 W13       30.04S
SIDNEY         SUNNY     68  50  52 NW13      30.02R
$$

NEZ057>060-069>072-079>082-211500-
SOUTHWEST NEBRASKA

CITY           SKY/WX    TMP DP  RH WIND       PRES   REMARKS
NORTH PLATTE   PTSUNNY   74  62  66 W3        29.88R
IMPERIAL       MOSUNNY   73  60  63 NW10      29.92R
LEXINGTON      MOSUNNY   73  66  80 E5        29.85R
MCCOOK         MOSUNNY   77  60  55 N7        29.87R
OGALLALA       MOSUNNY   67  61  79 W5        29.91S
$$

NEZ005>010-023>029-035>040-094-211500-
NORTH CENTRAL NEBRASKA

CITY           SKY/WX    TMP DP  RH WIND       PRES   REMARKS
VALENTINE      PTSUNNY   67  62  84 NW7       29.90S
AINSWORTH      PTSUNNY   68  62  79 NW8       29.90R
BROKEN BOW     MOSUNNY   76  64  66 NW5       29.84F
O`NEILL        SUNNY     76  66  73 NW9       29.83S
ORD            MOSUNNY   73  65  75 S6        29.82F
THEDFORD       CLOUDY    72  63  72 NW12      29.88R
$$

NEZ041-046>049-061>064-073>077-083>087-211500-
SOUTH CENTRAL NEBRASKA

CITY           SKY/WX    TMP DP  RH WIND       PRES   REMARKS
GRAND ISLAND   MOSUNNY   75  68  78 S14       29.83R
AURORA         PTSUNNY   75  69  84 S14G23    29.84R
HASTINGS       PTSUNNY   72  65  78 S12       29.85R
HEBRON         CLOUDY    73  67  82 CALM      29.88R
HOLDREGE       MOSUNNY   71  66  84 CALM      29.85S
KEARNEY *      MOSUNNY   73  68  83 SW5       29.85R
YORK           CLOUDY    73 N/A N/A S16G22    29.85R
$$

NEZ011>018-030>034-042>045-211500-
NORTHEAST NEBRASKA

CITY           SKY/WX    TMP DP  RH WIND       PRES   REMARKS
NORFOLK        SUNNY     77  65  66 VRB7      29.81R
ALBION         SUNNY     74  65  74 SW6       29.83R
BLAIR          CLOUDY    75  67  76 CALM      29.81S
FREMONT        CLOUDY    75  67  74 NE5       29.81S
TEKAMAH        CLOUDY    77  70  79 S3        29.81R
WAYNE          PTSUNNY   76  67  73 S6        29.80R
$$

NEZ050>053-065>068-078-088>093-211500-
SOUTHEAST NEBRASKA

CITY           SKY/WX    TMP DP  RH WIND       PRES   REMARKS
LINCOLN        LGT RAIN  73  69  87 S17       29.82F
OMAHA EPPLEY   CLOUDY    76  69  79 NE5       29.81R
BEATRICE       CLOUDY    76  69  79 S3        29.88R
FALLS CITY     CLOUDY    80  70  71 CALM      29.88R
NEBRASKA CITY  CLOUDY    74  68  81 SW8       29.85F
PLATTSMOUTH    LGT RAIN  75  67  76 S25G38    29.79F
$$

NEZ044-045-051>053-067-211500-
OMAHA AREA

CITY           SKY/WX    TMP DP  RH WIND       PRES   REMARKS
OMAHA EPPLEY   CLOUDY    76  69  79 NE5       29.81R
BLAIR          CLOUDY    75  67  76 CALM      29.81S
FREMONT        CLOUDY    75  67  74 NE5       29.81S
MILLARD        CLOUDY    76  68  78 CALM      29.79S
OFFUTT AFB     PTSUNNY   74  73  95 S6        29.79R
PLATTSMOUTH    LGT RAIN  75  67  76 S25G38    29.79F
WAHOO          FAIR      81  63  55 SW15G23   29.80R
$$


USA.gov is the U.S. government's official web portal to all federal, state and local government web resources and services.